Location: Lucerne Valley
(34.4439°N, 116.9669°E)
Time: 13:22:21
(UTC-07:00)

Vanguard 2 Rocket - All Passes

Search period start: 18 October 2017 00:00
Search period end: 28 October 2017 00:00
Orbit: 555 x 3327 km, 32.9° (Epoch: 17 October)

Date Brightness Start Highest point End Pass type
(mag) Time Alt. Az. Time Alt. Az. Time Alt. Az.
18 Oct - 00:11:26 10° W 00:20:03 83° S 00:35:48 10° E daylight
18 Oct - 02:24:33 10° W 02:36:15 62° SSW 02:54:52 10° SE visible
18 Oct - 04:39:56 10° W 04:53:10 34° SW 05:09:50 10° SSE visible
18 Oct - 21:00:57 10° SW 21:06:05 50° SSE 21:14:42 10° E daylight
18 Oct - 23:12:35 10° W 23:19:50 83° S 23:33:17 10° E daylight
19 Oct - 01:25:13 10° W 01:35:19 70° SSW 01:52:45 10° ESE daylight
19 Oct - 03:39:21 10° W 03:51:54 42° SSW 04:09:29 10° SSE visible
19 Oct - 05:59:24 10° WSW 06:08:41 16° SW 06:18:53 10° S visible
19 Oct - 20:02:54 10° SSW 20:07:07 32° SSE 20:13:21 10° E daylight
19 Oct - 22:13:55 10° WSW 22:20:01 78° S 22:31:07 10° E daylight
20 Oct - 00:26:10 10° W 00:34:44 76° S 00:50:21 10° ESE daylight
20 Oct - 02:39:27 10° W 02:50:46 50° SSW 03:08:22 10° SE visible
20 Oct - 04:56:15 10° W 05:07:30 23° SW 05:21:07 10° S visible
20 Oct - 19:05:26 10° S 19:08:24 18° SE 19:12:02 10° ESE daylight
20 Oct - 21:15:24 10° WSW 21:20:33 66° SSE 21:29:27 10° E daylight
20 Oct - 23:27:19 10° W 23:34:33 81° S 23:47:57 10° E daylight
21 Oct - 01:40:01 10° W 01:49:56 58° SSW 02:06:40 10° SE daylight
21 Oct - 03:54:57 10° W 04:06:20 30° SSW 04:21:40 10° SSE visible
21 Oct - 20:17:02 10° SW 20:21:27 47° SSE 20:28:17 10° E daylight
21 Oct - 22:28:37 10° W 22:34:43 81° S 22:45:50 10° E daylight
22 Oct - 00:40:56 10° W 00:49:25 65° SSW 01:04:38 10° ESE daylight
22 Oct - 02:54:40 10° W 03:05:19 37° SSW 03:21:12 10° SSE visible
22 Oct - 05:14:52 10° WSW 05:21:59 14° SW 05:29:59 10° SSW visible
22 Oct - 19:18:55 10° SSW 19:22:36 29° SSE 19:27:29 10° E daylight
22 Oct - 21:30:02 10° WSW 21:35:12 77° S 21:44:10 10° E daylight
22 Oct - 23:42:04 10° W 23:49:16 72° S 00:02:29 10° ESE daylight
23 Oct - 01:55:00 10° W 02:04:32 45° SSW 02:20:04 10° SE daylight
23 Oct - 04:11:37 10° WSW 04:20:53 20° SW 04:32:31 10° S visible
23 Oct - 18:21:18 10° S 18:23:50 16° SSE 18:26:42 10° ESE daylight
23 Oct - 20:31:30 10° WSW 20:35:59 64° SSE 20:43:03 10° E daylight
23 Oct - 22:43:22 10° W 22:49:27 78° S 23:00:30 10° ESE daylight
24 Oct - 00:55:47 10° W 01:04:05 52° SSW 01:18:30 10° SE daylight
24 Oct - 03:10:28 10° W 03:19:56 26° SSW 03:33:07 10° SSE visible
24 Oct - 19:33:04 10° SW 19:37:00 45° SSE 19:42:26 10° E daylight
24 Oct - 21:44:44 10° W 21:49:56 80° S 21:58:54 10° E daylight
24 Oct - 23:56:51 10° W 00:03:57 60° SSW 00:16:43 10° ESE daylight
25 Oct - 02:10:20 10° W 02:19:12 32° SSW 02:32:45 10° SSE daylight
25 Oct - 04:32:08 10° SW 04:35:37 11° SW 04:39:23 10° SSW visible
25 Oct - 18:34:46 10° SW 18:38:11 28° SSE 18:42:11 10° E daylight
25 Oct - 20:46:09 10° W 20:50:39 75° S 20:57:47 10° E daylight
25 Oct - 22:58:06 10° W 23:04:10 67° S 23:15:00 10° ESE daylight
26 Oct - 01:10:51 10° W 01:18:46 38° SSW 01:31:48 10° SE daylight
26 Oct - 03:27:42 10° WSW 03:34:40 16° SSW 03:43:21 10° S visible
26 Oct - 17:36:46 10° SSW 17:39:22 17° SSE 17:42:00 10° ESE daylight
26 Oct - 19:47:33 10° WSW 19:51:35 62° SSE 19:57:14 10° E daylight
26 Oct - 21:59:29 10° W 22:04:38 74° S 22:13:33 10° ESE daylight
27 Oct - 00:11:45 10° W 00:18:39 45° SSW 00:30:32 10° SE daylight
27 Oct - 02:26:28 10° WSW 02:33:58 21° SSW 02:44:19 10° SSE visible
27 Oct - 18:48:56 10° SW 18:52:40 44° SSE 18:57:09 10° E daylight
27 Oct - 21:00:53 10° W 21:05:22 77° S 21:12:30 10° E daylight
27 Oct - 23:12:55 10° W 23:18:52 53° SSW 23:29:13 10° ESE daylight
